| time (UTC) | temp F | wind direction | speed MPH | gust MPH | rain 1hr in | rain 24hr in | rain mn in | humidity % | barometer mb |
| 20260508140902 | 60 | 270 | 4.0 | 14.0 | 0.00 | 0.00 | 0.00 | 42 | 1016.8 |
| 20260508140404 | 60 | 187 | 3.0 | 14.0 | 0.00 | 0.00 | 0.00 | 42 | 1016.8 |
| 20260508140158 | 59 | 215 | 2.0 | 8.0 | 0.00 | 0.00 | 0.00 | 44 | 1016.9 |
| 20260508135404 | 59 | 171 | 3.0 | 9.0 | 0.00 | 0.00 | 0.00 | 45 | 1016.9 |
| 20260508134904 | 58 | 110 | 3.0 | 9.0 | 0.00 | 0.00 | 0.00 | 44 | 1016.9 |
| 20260508134402 | 58 | 241 | 3.0 | 9.0 | 0.00 | 0.00 | 0.00 | 45 | 1016.9 |
| 20260508133902 | 58 | 236 | 3.0 | 11.0 | 0.00 | 0.00 | 0.00 | 47 | 1017.0 |
| 20260508133401 | 58 | 160 | 4.0 | 11.0 | 0.00 | 0.00 | 0.00 | 47 | 1017.0 |
| 20260508132901 | 57 | 291 | 4.0 | 11.0 | 0.00 | 0.00 | 0.00 | 51 | 1016.9 |
| 20260508132657 | 57 | 222 | 3.0 | 7.0 | 0.00 | 0.00 | 0.00 | 52 | 1017.1 |
| 20260508131901 | 56 | 258 | 3.0 | 8.0 | 0.00 | 0.00 | 0.00 | 56 | 1017.2 |
| 20260508131401 | 56 | 159 | 3.0 | 8.0 | 0.00 | 0.00 | 0.00 | 57 | 1017.1 |
| 20260508130902 | 56 | 143 | 2.0 | 8.0 | 0.00 | 0.00 | 0.00 | 57 | 1017.2 |
| 20260508130401 | 55 | 196 | 2.0 | 5.0 | 0.00 | 0.00 | 0.00 | 58 | 1017.2 |
| 20260508125901 | 55 | 171 | 1.0 | 5.0 | 0.00 | 0.00 | 0.00 | 59 | 1017.2 |
| 20260508125401 | 54 | 194 | 1.0 | 4.0 | 0.00 | 0.00 | 0.00 | 62 | 1017.2 |
| 20260508125153 | 54 | 100 | 1.0 | 4.0 | 0.00 | 0.00 | 0.00 | 65 | 1017.3 |
| 20260508124402 | 53 | 164 | 1.0 | 4.0 | 0.00 | 0.00 | 0.00 | 66 | 1017.2 |
| 20260508124153 | 52 | 234 | 1.0 | 4.0 | 0.00 | 0.00 | 0.00 | 69 | 1017.2 |
| 20260508123652 | 52 | 89 | 0.0 | 3.0 | 0.00 | 0.00 | 0.00 | 72 | 1017.1 |
| 20260508122902 | 51 | 82 | 0.0 | 1.0 | 0.00 | 0.00 | 0.00 | 76 | 1017.0 |
| 20260508122405 | 51 | 116 | 0.0 | 3.0 | 0.00 | 0.00 | 0.00 | 77 | 1017.0 |
| 20260508121902 | 51 | 54 | 1.0 | 3.0 | 0.00 | 0.00 | 0.00 | 74 | 1017.0 |
| 20260508121652 | 50 | 325 | 0.0 | 3.0 | 0.00 | 0.00 | 0.00 | 77 | 1017.0 |
| 20260508120902 | 49 | 110 | 0.0 | 3.0 | 0.00 | 0.00 | 0.00 | 82 | 1017.0 |
| 20260508120403 | 48 | 279 | 0.0 | 1.0 | 0.00 | 0.00 | 0.00 | 87 | 1017.0 |
| 20260508120153 | 47 | 171 | 0.0 | 1.0 | 0.00 | 0.00 | 0.00 | 89 | 1017.0 |
| 20260508115402 | 46 | 143 | 0.0 | 1.0 | 0.00 | 0.00 | 0.00 | 91 | 1016.9 |
| 20260508114901 | 45 | 100 | 0.0 | 1.0 | 0.00 | 0.00 | 0.00 | 92 | 1016.8 |
| 20260508114401 | 44 | 11 | 0.0 | 1.0 | 0.00 | 0.00 | 0.00 | 92 | 1016.9 |
| 20260508113904 | 44 | 11 | 0.0 | 1.0 | 0.00 | 0.00 | 0.00 | 93 | 1016.8 |
| 20260508113401 | 43 | 279 | 0.0 | 3.0 | 0.00 | 0.00 | 0.00 | 93 | 1016.8 |
| 20260508113147 | 43 | 301 | 0.0 | 3.0 | 0.00 | 0.00 | 0.00 | 93 | 1016.9 |
| 20260508112349 | 42 | 11 | 0.0 | 1.0 | 0.00 | 0.00 | 0.00 | 93 | 1016.7 |
| 20260508111844 | 42 | 54 | 0.0 | 1.0 | 0.00 | 0.00 | 0.00 | 93 | 1016.6 |
| 20260508111344 | 42 | 100 | 0.0 | 1.0 | 0.00 | 0.00 | 0.00 | 93 | 1016.5 |
| 20260508111139 | 41 | 100 | 0.0 | 1.0 | 0.00 | 0.00 | 0.00 | 93 | 1016.3 |
| 20260508110344 | 41 | 54 | 0.0 | 1.0 | 0.00 | 0.00 | 0.00 | 93 | 1016.3 |
| 20260508105842 | 41 | 11 | 0.0 | 1.0 | 0.00 | 0.00 | 0.00 | 93 | 1016.3 |
| 20260508105343 | 41 | 116 | 0.0 | 1.0 | 0.00 | 0.00 | 0.00 | 92 | 1016.3 |
| 20260508105138 | 41 | 54 | 0.0 | 1.0 | 0.00 | 0.00 | 0.00 | 92 | 1016.1 |
| 20260508104342 | 40 | 54 | 0.0 | 1.0 | 0.00 | 0.00 | 0.00 | 92 | 1016.1 |
| 20260508103843 | 40 | 54 | 0.0 | 1.0 | 0.00 | 0.00 | 0.00 | 92 | 1016.1 |
| 20260508103342 | 40 | 54 | 0.0 | 1.0 | 0.00 | 0.00 | 0.00 | 92 | 1016.1 |
| 20260508102844 | 40 | 54 | 0.0 | 1.0 | 0.00 | 0.00 | 0.00 | 92 | 1016.1 |
| 20260508102341 | 40 | 28 | 0.0 | 1.0 | 0.00 | 0.00 | 0.00 | 92 | 1016.2 |
| 20260508101841 | 41 | 11 | 0.0 | 1.0 | 0.00 | 0.00 | 0.00 | 92 | 1016.1 |
| 20260508101342 | 41 | 11 | 0.0 | 1.0 | 0.00 | 0.00 | 0.00 | 92 | 1016.0 |
| 20260508100839 | 41 | 11 | 0.0 | 1.0 | 0.00 | 0.00 | 0.00 | 92 | 1016.0 |
| 20260508100341 | 41 | 54 | 0.0 | 1.0 | 0.00 | 0.00 | 0.00 | 92 | 1016.0 |
| 20260508100122 | 41 | 54 | 0.0 | 1.0 | 0.00 | 0.00 | 0.00 | 92 | 1016.0 |
| 20260508095335 | 41 | 54 | 0.0 | 1.0 | 0.00 | 0.00 | 0.00 | 92 | 1015.8 |
| 20260508094832 | 41 | 54 | 0.0 | 1.0 | 0.00 | 0.00 | 0.00 | 92 | 1015.9 |
| 20260508094332 | 41 | 82 | 0.0 | 1.0 | 0.00 | 0.00 | 0.00 | 92 | 1015.9 |
| 20260508093833 | 41 | 54 | 0.0 | 1.0 | 0.00 | 0.00 | 0.00 | 92 | 1015.9 |
| 20260508093333 | 41 | 54 | 0.0 | 1.0 | 0.00 | 0.00 | 0.00 | 92 | 1015.9 |
| 20260508092833 | 41 | 54 | 0.0 | 1.0 | 0.00 | 0.00 | 0.00 | 92 | 1015.8 |
| 20260508092330 | 41 | 100 | 0.0 | 1.0 | 0.00 | 0.00 | 0.00 | 92 | 1015.7 |
| 20260508091831 | 42 | 54 | 0.0 | 3.0 | 0.00 | 0.00 | 0.00 | 92 | 1015.7 |
| 20260508091330 | 42 | 54 | 0.0 | 3.0 | 0.00 | 0.00 | 0.00 | 92 | 1015.7 |
| 20260508090831 | 42 | 54 | 0.0 | 3.0 | 0.00 | 0.00 | 0.00 | 92 | 1015.6 |
| 20260508090330 | 42 | 11 | 0.0 | 3.0 | 0.00 | 0.00 | 0.00 | 92 | 1015.6 |
| 20260508085830 | 42 | 242 | 0.0 | 3.0 | 0.00 | 0.00 | 0.00 | 92 | 1015.5 |
| 20260508085330 | 42 | 11 | 0.0 | 1.0 | 0.00 | 0.00 | 0.00 | 92 | 1015.6 |
| 20260508084832 | 42 | 279 | 0.0 | 1.0 | 0.00 | 0.00 | 0.00 | 92 | 1015.5 |
| 20260508084329 | 42 | 143 | 0.0 | 1.0 | 0.00 | 0.00 | 0.00 | 92 | 1015.4 |
| 20260508083830 | 43 | 82 | 0.0 | 1.0 | 0.00 | 0.00 | 0.00 | 92 | 1015.3 |
| 20260508083332 | 43 | 54 | 0.0 | 1.0 | 0.00 | 0.00 | 0.00 | 92 | 1015.3 |
| 20260508082829 | 43 | 100 | 1.0 | 1.0 | 0.00 | 0.00 | 0.00 | 92 | 1015.2 |
| 20260508082331 | 43 | 73 | 1.0 | 3.0 | 0.00 | 0.00 | 0.00 | 92 | 1015.2 |
| 20260508081831 | 43 | 67 | 0.0 | 3.0 | 0.00 | 0.00 | 0.00 | 92 | 1015.1 |
| 20260508081330 | 43 | 54 | 0.0 | 1.0 | 0.00 | 0.00 | 0.00 | 92 | 1015.0 |
| 20260508080828 | 43 | 28 | 0.0 | 1.0 | 0.00 | 0.00 | 0.00 | 92 | 1015.0 |
| 20260508080331 | 43 | 100 | 0.0 | 1.0 | 0.00 | 0.00 | 0.00 | 92 | 1014.9 |
| 20260508080130 | 43 | 100 | 0.0 | 1.0 | 0.00 | 0.00 | 0.00 | 92 | 1015.0 |
| 20260508075331 | 44 | 100 | 0.0 | 1.0 | 0.00 | 0.00 | 0.00 | 92 | 1014.8 |
| 20260508074830 | 44 | 54 | 0.0 | 1.0 | 0.00 | 0.00 | 0.00 | 92 | 1014.9 |
| 20260508074331 | 44 | 28 | 0.0 | 1.0 | 0.00 | 0.00 | 0.00 | 92 | 1014.8 |
| 20260508073830 | 44 | 353 | 0.0 | 1.0 | 0.00 | 0.00 | 0.00 | 92 | 1014.6 |
| 20260508073331 | 44 | 54 | 0.0 | 1.0 | 0.00 | 0.00 | 0.00 | 92 | 1014.5 |
| 20260508072829 | 44 | 54 | 0.0 | 1.0 | 0.00 | 0.00 | 0.00 | 92 | 1014.5 |
| 20260508072330 | 44 | 82 | 0.0 | 1.0 | 0.00 | 0.00 | 0.00 | 92 | 1014.4 |
| 20260508071830 | 44 | 54 | 1.0 | 1.0 | 0.00 | 0.00 | 0.00 | 92 | 1014.4 |
| 20260508071423 | 44 | 28 | 1.0 | 1.0 | 0.00 | 0.00 | 0.00 | 92 | 1014.3 |
| 20260508071405 | 44 | 54 | 1.0 | 1.0 | 0.00 | 0.00 | 0.00 | 92 | 1014.3 |
| 20260508070330 | 44 | 54 | 0.0 | 1.0 | 0.00 | 0.00 | 0.00 | 92 | 1014.2 |
| 20260508065829 | 44 | 54 | 0.0 | 1.0 | 0.00 | 0.00 | 0.00 | 92 | 1014.2 |
| 20260508065331 | 44 | 11 | 0.0 | 1.0 | 0.00 | 0.00 | 0.00 | 92 | 1014.0 |
| 20260508064830 | 44 | 54 | 0.0 | 1.0 | 0.00 | 0.00 | 0.00 | 92 | 1014.0 |
| 20260508064330 | 44 | 100 | 0.0 | 1.0 | 0.00 | 0.00 | 0.00 | 91 | 1014.0 |
| 20260508063830 | 45 | 345 | 0.0 | 1.0 | 0.00 | 0.00 | 0.00 | 92 | 1014.0 |
| 20260508063329 | 45 | 54 | 0.0 | 3.0 | 0.00 | 0.00 | 0.00 | 92 | 1013.9 |
| 20260508063126 | 45 | 54 | 0.0 | 3.0 | 0.00 | 0.00 | 0.00 | 92 | 1013.8 |
| 20260508062330 | 45 | 54 | 0.0 | 1.0 | 0.00 | 0.00 | 0.00 | 91 | 1013.8 |
| 20260508061926 | 45 | 82 | 0.0 | 1.0 | 0.00 | 0.00 | 0.00 | 91 | 1013.7 |
| 20260508061908 | 45 | 82 | 0.0 | 1.0 | 0.00 | 0.00 | 0.00 | 91 | 1013.8 |
| 20260508060830 | 45 | 100 | 0.0 | 1.0 | 0.00 | 0.00 | 0.00 | 91 | 1013.8 |
| 20260508060330 | 45 | 37 | 0.0 | 1.0 | 0.00 | 0.00 | 0.00 | 91 | 1013.8 |
| 20260508055829 | 45 | 82 | 0.0 | 1.0 | 0.00 | 0.00 | 0.00 | 91 | 1013.6 |
| 20260508055329 | 45 | 82 | 0.0 | 1.0 | 0.00 | 0.00 | 0.00 | 91 | 1013.7 |
| 20260508054830 | 46 | 54 | 0.0 | 1.0 | 0.00 | 0.00 | 0.00 | 91 | 1013.8 |
| 20260508054329 | 46 | 54 | 0.0 | 1.0 | 0.00 | 0.00 | 0.00 | 91 | 1013.8 |
| 20260508053830 | 46 | 326 | 0.0 | 1.0 | 0.00 | 0.00 | 0.00 | 91 | 1013.6 |
| 20260508053332 | 46 | 54 | 0.0 | 1.0 | 0.00 | 0.00 | 0.00 | 90 | 1013.6 |
| 20260508052830 | 46 | 82 | 0.0 | 1.0 | 0.00 | 0.00 | 0.00 | 90 | 1013.6 |
| 20260508052331 | 46 | 73 | 0.0 | 1.0 | 0.00 | 0.00 | 0.00 | 90 | 1013.6 |
| 20260508051830 | 46 | 54 | 0.0 | 1.0 | 0.00 | 0.00 | 0.00 | 90 | 1013.4 |
| 20260508051329 | 47 | 54 | 0.0 | 1.0 | 0.00 | 0.00 | 0.00 | 90 | 1013.4 |
| 20260508051121 | 47 | 73 | 0.0 | 1.0 | 0.00 | 0.00 | 0.00 | 89 | 1013.4 |
| 20260508050330 | 47 | 54 | 0.0 | 1.0 | 0.00 | 0.00 | 0.00 | 89 | 1013.4 |
| 20260508045829 | 47 | 54 | 0.0 | 1.0 | 0.00 | 0.00 | 0.00 | 89 | 1013.3 |
| 20260508045329 | 47 | 353 | 0.0 | 1.0 | 0.00 | 0.00 | 0.00 | 89 | 1013.4 |
| 20260508044829 | 47 | 54 | 0.0 | 1.0 | 0.00 | 0.02 | 0.00 | 89 | 1013.3 |
| 20260508044333 | 47 | 82 | 0.0 | 1.0 | 0.00 | 0.02 | 0.00 | 89 | 1013.2 |
| 20260508043830 | 47 | 54 | 0.0 | 1.0 | 0.00 | 0.02 | 0.00 | 88 | 1013.2 |
| 20260508043329 | 47 | 11 | 0.0 | 1.0 | 0.00 | 0.02 | 0.00 | 88 | 1013.3 |
| 20260508042829 | 48 | 54 | 0.0 | 1.0 | 0.00 | 0.02 | 0.00 | 88 | 1013.2 |
| 20260508042627 | 48 | 54 | 0.0 | 3.0 | 0.00 | 0.02 | 0.00 | 88 | 1013.1 |
| 20260508041918 | 48 | 11 | 0.0 | 1.0 | 0.00 | 0.02 | 0.00 | 87 | 1013.0 |
| 20260508041900 | 48 | 54 | 0.0 | 3.0 | 0.00 | 0.02 | 0.00 | 87 | 1013.2 |
| 20260508040830 | 48 | 73 | 0.0 | 3.0 | 0.00 | 0.02 | 0.00 | 87 | 1013.0 |
| 20260508040329 | 49 | 54 | 1.0 | 3.0 | 0.00 | 0.02 | 0.00 | 87 | 1013.0 |
| 20260508040123 | 49 | 11 | 1.0 | 1.0 | 0.00 | 0.02 | 0.02 | 86 | 1012.9 |
| 20260508035328 | 49 | 54 | 0.0 | 3.0 | 0.00 | 0.02 | 0.02 | 86 | 1012.9 |
| 20260508034830 | 49 | 100 | 0.0 | 3.0 | 0.00 | 0.02 | 0.02 | 86 | 1012.9 |
| 20260508034331 | 49 | 11 | 0.0 | 3.0 | 0.00 | 0.02 | 0.02 | 85 | 1012.9 |
| 20260508033830 | 49 | 54 | 0.0 | 3.0 | 0.00 | 0.02 | 0.02 | 85 | 1012.9 |
| 20260508033622 | 49 | 261 | 0.0 | 1.0 | 0.00 | 0.02 | 0.02 | 85 | 1012.9 |
| 20260508032830 | 49 | 11 | 0.0 | 1.0 | 0.00 | 0.02 | 0.02 | 84 | 1012.8 |
| 20260508032330 | 49 | 73 | 1.0 | 1.0 | 0.00 | 0.02 | 0.02 | 84 | 1012.8 |
| 20260508031832 | 50 | 11 | 0.0 | 1.0 | 0.00 | 0.02 | 0.02 | 83 | 1012.9 |
| 20260508031331 | 50 | 54 | 1.0 | 3.0 | 0.00 | 0.02 | 0.02 | 84 | 1012.8 |
| 20260508030831 | 50 | 82 | 1.0 | 3.0 | 0.00 | 0.02 | 0.02 | 82 | 1012.8 |
| 20260508030323 | 50 | 11 | 0.0 | 3.0 | 0.00 | 0.02 | 0.02 | 83 | 1012.8 |
| 20260508025819 | 50 | 11 | 0.0 | 1.0 | 0.00 | 0.02 | 0.02 | 81 | 1012.8 |
| 20260508025313 | 51 | 11 | 1.0 | 1.0 | 0.00 | 0.02 | 0.02 | 81 | 1012.8 |
| 20260508025101 | 51 | 11 | 1.0 | 1.0 | 0.00 | 0.02 | 0.02 | 81 | 1012.8 |
| 20260508024302 | 51 | 28 | 0.0 | 1.0 | 0.00 | 0.02 | 0.02 | 81 | 1012.7 |
| 20260508023803 | 51 | 11 | 0.0 | 1.0 | 0.00 | 0.02 | 0.02 | 79 | 1012.8 |
| 20260508023302 | 51 | 73 | 0.0 | 1.0 | 0.00 | 0.02 | 0.02 | 79 | 1012.7 |
| 20260508022804 | 52 | 11 | 0.0 | 1.0 | 0.00 | 0.02 | 0.02 | 78 | 1012.8 |
| 20260508022306 | 52 | 100 | 0.0 | 3.0 | 0.00 | 0.02 | 0.02 | 77 | 1012.8 |
| 20260508021803 | 52 | 54 | 0.0 | 3.0 | 0.00 | 0.02 | 0.02 | 76 | 1012.7 |
| 20260508021302 | 53 | 82 | 0.0 | 1.0 | 0.00 | 0.02 | 0.02 | 76 | 1012.7 |
| 20260508021049 | 53 | 100 | 0.0 | 1.0 | 0.00 | 0.02 | 0.02 | 75 | 1012.6 |
| 20260508020302 | 53 | 54 | 1.0 | 3.0 | 0.00 | 0.02 | 0.02 | 75 | 1012.6 |
| 20260508015802 | 53 | 54 | 1.0 | 3.0 | 0.00 | 0.02 | 0.02 | 75 | 1012.6 |
| 20260508015306 | 53 | 125 | 1.0 | 3.0 | 0.00 | 0.02 | 0.02 | 73 | 1012.6 |
| 20260508014803 | 53 | 125 | 1.0 | 3.0 | 0.00 | 0.02 | 0.02 | 72 | 1012.5 |
| 20260508014304 | 54 | 100 | 1.0 | 3.0 | 0.00 | 0.02 | 0.02 | 71 | 1012.5 |
| 20260508013802 | 54 | 125 | 1.0 | 3.0 | 0.00 | 0.02 | 0.02 | 70 | 1012.3 |
| 20260508013302 | 54 | 110 | 1.0 | 3.0 | 0.00 | 0.02 | 0.02 | 70 | 1012.3 |
| 20260508012802 | 54 | 143 | 1.0 | 3.0 | 0.00 | 0.02 | 0.02 | 69 | 1012.3 |
| 20260508012307 | 54 | 100 | 1.0 | 3.0 | 0.00 | 0.02 | 0.02 | 69 | 1012.3 |
| 20260508011806 | 55 | 125 | 1.0 | 4.0 | 0.00 | 0.02 | 0.02 | 68 | 1012.2 |
| 20260508011302 | 55 | 158 | 1.0 | 4.0 | 0.00 | 0.02 | 0.02 | 69 | 1012.2 |
| 20260508010802 | 55 | 167 | 1.0 | 4.0 | 0.00 | 0.02 | 0.02 | 68 | 1012.2 |
| 20260508010302 | 55 | 188 | 1.0 | 4.0 | 0.00 | 0.02 | 0.02 | 67 | 1012.0 |
| 20260508005802 | 55 | 100 | 1.0 | 3.0 | 0.00 | 0.02 | 0.02 | 68 | 1012.0 |
| 20260508005305 | 55 | 110 | 1.0 | 3.0 | 0.00 | 0.02 | 0.02 | 67 | 1011.9 |
| 20260508004802 | 55 | 129 | 1.0 | 3.0 | 0.00 | 0.02 | 0.02 | 67 | 1011.8 |
| 20260508004303 | 56 | 143 | 1.0 | 3.0 | 0.00 | 0.02 | 0.02 | 66 | 1011.7 |
| 20260508003803 | 56 | 54 | 1.0 | 4.0 | 0.00 | 0.02 | 0.02 | 66 | 1011.7 |
| 20260508003303 | 56 | 326 | 1.0 | 4.0 | 0.00 | 0.02 | 0.02 | 65 | 1011.6 |
| 20260508002803 | 56 | 143 | 1.0 | 4.0 | 0.00 | 0.02 | 0.02 | 65 | 1011.7 |
| 20260508002306 | 56 | 73 | 1.0 | 4.0 | 0.00 | 0.02 | 0.02 | 65 | 1011.6 |
| 20260508001803 | 57 | 100 | 1.0 | 4.0 | 0.00 | 0.02 | 0.02 | 64 | 1011.5 |
| 20260508001302 | 57 | 54 | 1.0 | 5.0 | 0.00 | 0.02 | 0.02 | 64 | 1011.5 |
| 20260508000804 | 57 | 82 | 1.0 | 5.0 | 0.00 | 0.02 | 0.02 | 63 | 1011.4 |
| 20260508000557 | 57 | 178 | 2.0 | 5.0 | 0.00 | 0.02 | 0.02 | 63 | 1011.3 |
| 20260507235801 | 58 | 158 | 2.0 | 11.0 | 0.00 | 0.02 | 0.02 | 62 | 1011.4 |
| 20260507235301 | 58 | 143 | 2.0 | 11.0 | 0.00 | 0.02 | 0.02 | 61 | 1011.2 |
| 20260507234800 | 58 | 100 | 2.0 | 9.0 | 0.00 | 0.02 | 0.02 | 60 | 1011.1 |
| 20260507234301 | 59 | 215 | 2.0 | 5.0 | 0.00 | 0.02 | 0.02 | 60 | 1011.0 |
| 20260507233801 | 59 | 203 | 2.0 | 5.0 | 0.00 | 0.02 | 0.02 | 60 | 1010.8 |
| 20260507233301 | 59 | 143 | 2.0 | 5.0 | 0.00 | 0.02 | 0.02 | 60 | 1010.8 |
| 20260507232801 | 60 | 11 | 1.0 | 5.0 | 0.00 | 0.02 | 0.02 | 59 | 1010.8 |
| 20260507232600 | 60 | 54 | 1.0 | 5.0 | 0.00 | 0.02 | 0.02 | 59 | 1010.7 |
| 20260507231802 | 61 | 129 | 1.0 | 5.0 | 0.00 | 0.02 | 0.02 | 57 | 1010.7 |
| 20260507231302 | 61 | 132 | 1.0 | 5.0 | 0.00 | 0.02 | 0.02 | 56 | 1010.5 |
| 20260507230801 | 61 | 279 | 2.0 | 8.0 | 0.00 | 0.02 | 0.02 | 55 | 1010.6 |
| 20260507230302 | 61 | 143 | 1.0 | 8.0 | 0.00 | 0.02 | 0.02 | 55 | 1010.4 |
| 20260507230056 | 61 | 234 | 1.0 | 5.0 | 0.00 | 0.02 | 0.02 | 55 | 1010.4 |
| 20260507225305 | 62 | 54 | 1.0 | 7.0 | 0.00 | 0.02 | 0.02 | 54 | 1010.3 |
| 20260507224802 | 62 | 143 | 1.0 | 7.0 | 0.00 | 0.02 | 0.02 | 53 | 1010.3 |
| 20260507224301 | 62 | 188 | 2.0 | 8.0 | 0.00 | 0.02 | 0.02 | 52 | 1010.1 |
| 20260507223800 | 62 | 121 | 2.0 | 8.0 | 0.00 | 0.02 | 0.02 | 52 | 1010.1 |
| 20260507223303 | 62 | 100 | 1.0 | 7.0 | 0.00 | 0.02 | 0.02 | 54 | 1010.1 |
| 20260507222801 | 62 | 100 | 1.0 | 7.0 | 0.00 | 0.02 | 0.02 | 53 | 1010.1 |
| 20260507222559 | 62 | 11 | 1.0 | 5.0 | 0.00 | 0.02 | 0.02 | 53 | 1009.9 |
| 20260507221801 | 62 | 100 | 2.0 | 7.0 | 0.00 | 0.02 | 0.02 | 53 | 1009.9 |
| 20260507221300 | 63 | 133 | 3.0 | 14.0 | 0.00 | 0.02 | 0.02 | 53 | 1010.0 |
| 20260507220801 | 63 | 137 | 3.0 | 14.0 | 0.00 | 0.02 | 0.02 | 51 | 1010.1 |
| 20260507220301 | 63 | 143 | 2.0 | 9.0 | 0.00 | 0.02 | 0.02 | 53 | 1010.0 |
| 20260507215801 | 63 | 312 | 3.0 | 11.0 | 0.00 | 0.02 | 0.02 | 53 | 1009.8 |
| 20260507215301 | 64 | 187 | 3.0 | 11.0 | 0.00 | 0.02 | 0.02 | 50 | 1009.9 |
| 20260507214803 | 64 | 168 | 3.0 | 9.0 | 0.00 | 0.02 | 0.02 | 51 | 1010.0 |
| 20260507214301 | 65 | 121 | 3.0 | 9.0 | 0.00 | 0.02 | 0.02 | 49 | 1009.9 |
| 20260507213801 | 65 | 148 | 2.0 | 9.0 | 0.00 | 0.02 | 0.02 | 50 | 1010.1 |
| 20260507213302 | 65 | 143 | 3.0 | 14.0 | 0.00 | 0.02 | 0.02 | 51 | 1010.1 |
| 20260507213056 | 65 | 161 | 4.0 | 14.0 | 0.00 | 0.02 | 0.02 | 50 | 1010.1 |
| 20260507212700 | 65 | 161 | 3.0 | 12.0 | 0.00 | 0.02 | 0.02 | 48 | 1010.2 |
| 20260507212342 | 65 | 152 | 4.0 | 14.0 | 0.00 | 0.02 | 0.02 | 49 | 1010.1 |
| 20260507211304 | 67 | 203 | 3.0 | 9.0 | 0.00 | 0.02 | 0.02 | 46 | 1010.0 |
| 20260507210802 | 67 | 110 | 2.0 | 9.0 | 0.00 | 0.02 | 0.02 | 45 | 1009.9 |
| 20260507210558 | 68 | 100 | 2.0 | 7.0 | 0.00 | 0.02 | 0.02 | 44 | 1010.1 |
| 20260507205802 | 67 | 82 | 1.0 | 7.0 | 0.00 | 0.02 | 0.02 | 45 | 1010.0 |
| 20260507205306 | 67 | 11 | 1.0 | 4.0 | 0.00 | 0.02 | 0.02 | 45 | 1009.9 |
| 20260507204803 | 67 | 33 | 2.0 | 8.0 | 0.00 | 0.02 | 0.02 | 45 | 1010.0 |
| 20260507204303 | 68 | 143 | 2.0 | 8.0 | 0.00 | 0.02 | 0.02 | 44 | 1009.9 |
| 20260507203801 | 68 | 160 | 2.0 | 7.0 | 0.00 | 0.02 | 0.02 | 43 | 1010.1 |
| 20260507203301 | 68 | 86 | 2.0 | 7.0 | 0.00 | 0.02 | 0.02 | 44 | 1010.0 |
| 20260507202802 | 68 | 251 | 2.0 | 8.0 | 0.00 | 0.02 | 0.02 | 46 | 1010.1 |
| 20260507202306 | 68 | 28 | 2.0 | 8.0 | 0.00 | 0.02 | 0.02 | 44 | 1010.1 |
| 20260507201801 | 68 | 185 | 1.0 | 7.0 | 0.00 | 0.02 | 0.02 | 45 | 1010.0 |
| 20260507201303 | 68 | 54 | 2.0 | 7.0 | 0.00 | 0.02 | 0.02 | 46 | 1009.9 |
| 20260507201104 | 69 | 125 | 2.0 | 7.0 | 0.00 | 0.02 | 0.02 | 42 | 1009.9 |
| 20260507200301 | 70 | 11 | 3.0 | 8.0 | 0.00 | 0.02 | 0.02 | 39 | 1009.9 |
| 20260507195801 | 69 | 192 | 2.0 | 8.0 | 0.00 | 0.02 | 0.02 | 38 | 1009.7 |
| 20260507195601 | 69 | 155 | 1.0 | 4.0 | 0.00 | 0.02 | 0.02 | 41 | 1009.7 |
| 20260507195053 | 69 | 181 | 1.0 | 4.0 | 0.00 | 0.02 | 0.02 | 39 | 1009.7 |
| 20260507194302 | 69 | 143 | 1.0 | 5.0 | 0.00 | 0.02 | 0.02 | 39 | 1009.9 |
| 20260507194057 | 69 | 21 | 2.0 | 7.0 | 0.00 | 0.02 | 0.02 | 38 | 1010.1 |
| 20260507193600 | 69 | 110 | 1.0 | 7.0 | 0.00 | 0.02 | 0.02 | 39 | 1010.1 |
| 20260507192802 | 68 | 279 | 1.0 | 5.0 | 0.00 | 0.02 | 0.02 | 39 | 1010.2 |
| 20260507192305 | 68 | 279 | 1.0 | 5.0 | 0.00 | 0.02 | 0.02 | 40 | 1010.3 |
| 20260507192103 | 68 | 155 | 1.0 | 5.0 | 0.00 | 0.02 | 0.02 | 40 | 1010.3 |
| 20260507191303 | 66 | 257 | 1.0 | 5.0 | 0.00 | 0.02 | 0.02 | 42 | 1010.4 |
| 20260507190905 | 67 | 155 | 2.0 | 7.0 | 0.00 | 0.02 | 0.02 | 38 | 1010.8 |
| 20260507190845 | 66 | 305 | 2.0 | 7.0 | 0.00 | 0.02 | 0.02 | 38 | 1010.5 |
| 20260507185801 | 67 | 255 | 2.0 | 7.0 | 0.00 | 0.02 | 0.02 | 40 | 1010.9 |
| 20260507185305 | 67 | 234 | 2.0 | 4.0 | 0.00 | 0.02 | 0.02 | 39 | 1010.7 |
| 20260507184801 | 65 | 198 | 2.0 | 5.0 | 0.00 | 0.02 | 0.02 | 42 | 1010.8 |
| 20260507184302 | 65 | 273 | 2.0 | 5.0 | 0.00 | 0.02 | 0.02 | 40 | 1010.9 |
| 20260507183801 | 66 | 326 | 2.0 | 4.0 | 0.00 | 0.02 | 0.02 | 43 | 1010.9 |
| 20260507183302 | 65 | 271 | 2.0 | 7.0 | 0.00 | 0.02 | 0.02 | 43 | 1011.1 |
| 20260507183058 | 63 | 249 | 2.0 | 7.0 | 0.00 | 0.02 | 0.02 | 41 | 1011.2 |
| 20260507182306 | 64 | 217 | 2.0 | 11.0 | 0.00 | 0.02 | 0.02 | 40 | 1011.3 |
| 20260507181801 | 65 | 181 | 1.0 | 11.0 | 0.00 | 0.02 | 0.02 | 39 | 1011.4 |
| 20260507181302 | 65 | 205 | 1.0 | 4.0 | 0.00 | 0.02 | 0.02 | 43 | 1011.5 |
| 20260507180802 | 64 | 73 | 1.0 | 4.0 | 0.00 | 0.02 | 0.02 | 42 | 1011.5 |
| 20260507180303 | 64 | 54 | 1.0 | 4.0 | 0.00 | 0.02 | 0.02 | 44 | 1011.5 |
| 20260507175802 | 62 | 54 | 1.0 | 4.0 | 0.00 | 0.02 | 0.02 | 44 | 1011.6 |
| 20260507175306 | 62 | 18 | 1.0 | 4.0 | 0.00 | 0.02 | 0.02 | 43 | 1011.6 |
| 20260507174802 | 62 | 28 | 1.0 | 4.0 | 0.00 | 0.02 | 0.02 | 43 | 1011.6 |
| 20260507174301 | 62 | 234 | 1.0 | 4.0 | 0.00 | 0.02 | 0.02 | 43 | 1011.7 |
| 20260507173802 | 62 | 54 | 2.0 | 5.0 | 0.00 | 0.02 | 0.02 | 47 | 1011.7 |
| 20260507173303 | 61 | 54 | 2.0 | 8.0 | 0.00 | 0.02 | 0.02 | 45 | 1012.0 |
| 20260507172802 | 61 | 136 | 2.0 | 8.0 | 0.00 | 0.02 | 0.02 | 45 | 1012.1 |
| 20260507172306 | 61 | 11 | 2.0 | 7.0 | 0.00 | 0.02 | 0.02 | 42 | 1012.2 |
| 20260507171801 | 62 | 196 | 2.0 | 7.0 | 0.00 | 0.02 | 0.02 | 43 | 1012.2 |
| 20260507171303 | 63 | 129 | 2.0 | 5.0 | 0.00 | 0.02 | 0.02 | 44 | 1012.2 |
| 20260507170801 | 62 | 117 | 2.0 | 5.0 | 0.00 | 0.02 | 0.02 | 45 | 1012.3 |
| 20260507170304 | 61 | 175 | 1.0 | 4.0 | 0.00 | 0.02 | 0.02 | 48 | 1012.5 |
| 20260507165802 | 60 | 143 | 1.0 | 7.0 | 0.00 | 0.02 | 0.02 | 50 | 1012.5 |
| 20260507165601 | 59 | 188 | 2.0 | 7.0 | 0.00 | 0.02 | 0.02 | 46 | 1012.6 |
| 20260507165057 | 60 | 268 | 1.0 | 7.0 | 0.00 | 0.02 | 0.02 | 48 | 1012.6 |
| 20260507164303 | 59 | 205 | 1.0 | 7.0 | 0.00 | 0.02 | 0.02 | 48 | 1012.5 |
| 20260507163802 | 58 | 69 | 1.0 | 4.0 | 0.00 | 0.02 | 0.02 | 46 | 1012.6 |
| 20260507163302 | 58 | 54 | 1.0 | 4.0 | 0.00 | 0.02 | 0.02 | 46 | 1012.9 |
| 20260507162801 | 58 | 37 | 1.0 | 4.0 | 0.00 | 0.02 | 0.02 | 48 | 1012.9 |
| 20260507162302 | 57 | 37 | 1.0 | 4.0 | 0.00 | 0.02 | 0.02 | 49 | 1012.9 |
| 20260507162053 | 57 | 345 | 1.0 | 4.0 | 0.00 | 0.02 | 0.02 | 51 | 1013.1 |
| 20260507161304 | 57 | 326 | 1.0 | 3.0 | 0.00 | 0.02 | 0.02 | 49 | 1013.2 |
| 20260507160804 | 57 | 340 | 1.0 | 3.0 | 0.00 | 0.02 | 0.02 | 50 | 1013.1 |
| 20260507160302 | 57 | 279 | 1.0 | 3.0 | 0.00 | 0.02 | 0.02 | 52 | 1013.2 |
| 20260507155801 | 57 | 54 | 1.0 | 4.0 | 0.00 | 0.02 | 0.02 | 50 | 1013.2 |
| 20260507155305 | 57 | 284 | 1.0 | 4.0 | 0.00 | 0.02 | 0.02 | 55 | 1013.4 |
| 20260507154803 | 56 | 353 | 1.0 | 4.0 | 0.00 | 0.02 | 0.02 | 52 | 1013.4 |
| 20260507154301 | 56 | 261 | 1.0 | 3.0 | 0.00 | 0.02 | 0.02 | 53 | 1013.3 |
| 20260507153800 | 56 | 296 | 1.0 | 4.0 | 0.00 | 0.02 | 0.02 | 60 | 1013.4 |
| 20260507153303 | 56 | 307 | 1.0 | 4.0 | 0.00 | 0.02 | 0.02 | 52 | 1013.6 |
| 20260507152757 | 56 | 54 | 1.0 | 4.0 | 0.00 | 0.02 | 0.02 | 51 | 1013.6 |
| 20260507152644 | 56 | 279 | 1.0 | 5.0 | 0.00 | 0.02 | 0.02 | 59 | 1013.6 |
| 20260507152638 | 56 | 326 | 1.0 | 5.0 | 0.00 | 0.02 | 0.02 | 53 | 1013.6 |
| 20260507151240 | 56 | 11 | 1.0 | 4.0 | 0.00 | 0.02 | 0.02 | 60 | 1013.5 |
| 20260507151032 | 56 | 289 | 1.0 | 3.0 | 0.00 | 0.02 | 0.02 | 62 | 1013.6 |
| 20260507150239 | 55 | 234 | 1.0 | 4.0 | 0.00 | 0.02 | 0.02 | 69 | 1013.7 |
| 20260507145837 | 56 | 266 | 1.0 | 5.0 | 0.00 | 0.03 | 0.02 | 60 | 1013.8 |
| 20260507145817 | 55 | 292 | 1.0 | 5.0 | 0.00 | 0.03 | 0.02 | 60 | 1013.7 |
| 20260507144736 | 55 | 11 | 1.0 | 4.0 | 0.00 | 0.03 | 0.02 | 62 | 1013.9 |
| 20260507144237 | 55 | 353 | 1.0 | 4.0 | 0.00 | 0.03 | 0.02 | 64 | 1013.9 |
| 20260507143737 | 54 | 251 | 1.0 | 4.0 | 0.00 | 0.03 | 0.02 | 63 | 1013.9 |
| 20260507143234 | 54 | 326 | 1.0 | 4.0 | 0.00 | 0.03 | 0.02 | 69 | 1014.0 |
| 20260507142733 | 54 | 54 | 1.0 | 5.0 | 0.00 | 0.03 | 0.02 | 65 | 1014.1 |
| 20260507142329 | 54 | 279 | 1.0 | 5.0 | 0.00 | 0.03 | 0.02 | 67 | 1014.1 |
| 20260507142311 | 54 | 271 | 1.0 | 5.0 | 0.00 | 0.03 | 0.02 | 67 | 1014.1 |
| 20260507141336 | 54 | 82 | 1.0 | 5.0 | 0.00 | 0.03 | 0.02 | 76 | 1014.3 |
| 20260507141315 | 54 | 279 | 1.0 | 5.0 | 0.00 | 0.03 | 0.02 | 69 | 1014.3 |